Weather History for Lee's Summit, MO

Change the Weather History Date:

Sunday, March 24, 2013

  Actual Average (KMKC) Record (KMKC)
Temperature  
Mean Temperature 29 °F -  
Max Temperature 34 °F 57 °F 77 °F (1997)
Min Temperature 25 °F 37 °F 26 °F (2013)
Degree Days  
Heating Degree Days 36    
Moisture  
Dew Point 26 °F    
Average Humidity 86    
Maximum Humidity 100    
Minimum Humidity 69    
Precipitation  
Precipitation 0.06 in - - ()
Sea Level Pressure  
Sea Level Pressure 29.90 in    
Wind  
Wind Speed 18 mph (NNW)    
Max Wind Speed 25 mph    
Max Gust Speed 32 mph    
Visibility 3 miles    
Events Fog , Snow , Thunderstorm    
Averages and records for this station are not official NWS values.
T = Trace of Precipitation, MM = Missing Value Source: NWS Daily Summary

Daily Weather History Graph

Daily Weather History Graph

Search for Another Location

Airport:

Trip Planner

Search our weather history database for the weather conditions in past years. The results will help you decide how hot, cold, wet, or windy it might be!

Date:

Astronomy

Mar. 24, 2013 Rise Set
Actual Time 7:14 AM CDT 7:33 PM CDT
Civil Twilight 6:47 AM CDT 8:00 PM CDT
Nautical Twilight 6:16 AM CDT 8:31 PM CDT
Astronomical Twilight 5:44 AM CDT 9:03 PM CDT
Moon 5:03 PM CDT (3/24) 5:23 AM CDT (3/24)
Length of Visible Light 13h 12m
Length of Day
12h 19m
Waxing Gibbous, 92% of the Moon is Illuminated
Mar 24
Waxing Gibbous
Mar 27
Full
Apr 2
Last Quarter
Apr 10
New
Apr 18
First Quarter

Hourly Weather History & Observations

Time (CDT) Temp. Windchill Dew Point Humidity Pressure Visibility Wind Dir Wind Speed Gust Speed Precip Events Conditions
12:53 AM 33.1 °F 23.9 °F 30.9 °F 92% 29.91 in 5.0 mi NNE 12.7 mph - 0.00 in Snow Light Snow
1:07 AM 33.8 °F 25.3 °F 30.2 °F 87% 29.90 in 6.0 mi NNE 11.5 mph - 0.00 in   Overcast
1:46 AM 33.8 °F 22.8 °F 30.2 °F 87% 29.83 in 2.5 mi NNE 18.4 mph - 0.00 in Snow Light Snow
1:53 AM 32.0 °F 20.1 °F 30.0 °F 92% 29.86 in 2.5 mi NNE 19.6 mph - 0.00 in Snow Light Snow
2:53 AM 32.0 °F 20.5 °F 30.0 °F 92% 29.84 in 1.8 mi NE 18.4 mph 25.3 mph 0.01 in Snow Light Snow
3:42 AM 32.0 °F 20.5 °F 30.2 °F 93% 29.78 in 0.8 mi NNE 18.4 mph 26.5 mph 0.00 in Snow Light Snow
3:53 AM 32.0 °F 19.8 °F 30.0 °F 92% 29.80 in 0.8 mi NNE 20.7 mph 26.5 mph 0.00 in Snow Light Snow
4:17 AM 32.0 °F 20.5 °F 30.2 °F 93% 29.79 in 1.0 mi North 18.4 mph 26.5 mph 0.01 in Snow Light Snow
4:29 AM 30.2 °F 18.5 °F 30.2 °F 100% 29.79 in 0.8 mi North 17.3 mph 26.5 mph 0.01 in Snow Light Snow
4:48 AM 30.2 °F 17.8 °F 28.4 °F 93% 29.79 in 0.2 mi North 19.6 mph - 0.01 in Fog Light Freezing Fog
4:53 AM 30.9 °F 18.4 °F 30.0 °F 96% 29.83 in 0.5 mi North 20.7 mph - 0.01 in Fog Light Freezing Fog
5:04 AM 30.2 °F 18.9 °F 28.4 °F 93% 29.81 in 0.5 mi North 16.1 mph - 0.00 in Fog , Snow , Thunderstorm Snow
5:22 AM 30.2 °F 17.8 °F 28.4 °F 93% 29.81 in 0.5 mi North 19.6 mph 27.6 mph 0.01 in Fog , Snow Snow
5:49 AM 30.2 °F 18.1 °F 28.4 °F 93% 29.82 in 0.5 mi North 18.4 mph - 0.01 in Fog , Snow , Thunderstorm Snow
5:53 AM 30.0 °F 17.9 °F 28.9 °F 96% 29.85 in 0.2 mi North 18.4 mph 25.3 mph 0.02 in Fog , Thunderstorm Light Freezing Fog
6:02 AM 30.2 °F 17.1 °F 28.4 °F 93% 29.82 in 0.5 mi North 21.9 mph - N/A Fog , Thunderstorm Light Freezing Fog
6:10 AM 30.2 °F 17.8 °F 28.4 °F 93% 29.82 in 0.5 mi North 19.6 mph 28.8 mph 0.00 in Fog , Snow Snow
6:33 AM 30.2 °F 17.4 °F 28.4 °F 93% 29.82 in 0.5 mi North 20.7 mph 27.6 mph 0.01 in Fog , Snow Snow
6:53 AM 28.9 °F 15.4 °F 27.0 °F 92% 29.86 in 0.5 mi North 21.9 mph 29.9 mph 0.01 in Fog , Snow Snow
7:12 AM 28.4 °F 14.1 °F 26.6 °F 93% 29.83 in 0.8 mi North 24.2 mph 32.2 mph 0.01 in Snow Light Snow
7:40 AM 28.4 °F 13.8 °F 26.6 °F 93% 29.85 in 0.2 mi North 25.3 mph 32.2 mph 0.01 in Fog , Snow Snow
7:53 AM 28.9 °F 16.5 °F 27.0 °F 92% 29.88 in 0.2 mi North 18.4 mph 27.6 mph 0.01 in Fog , Snow Snow
8:19 AM 28.4 °F 15.4 °F 26.6 °F 93% 29.85 in 0.5 mi North 19.6 mph 29.9 mph 0.00 in Fog , Snow Snow
8:53 AM 28.9 °F 15.4 °F 26.1 °F 89% 29.90 in 0.5 mi North 21.9 mph 26.5 mph 0.00 in Fog , Snow Light Snow
9:34 AM 28.4 °F 15.1 °F 26.6 °F 93% 29.88 in 1.0 mi North 20.7 mph 28.8 mph 0.00 in Snow Light Snow
9:53 AM 28.9 °F 16.9 °F 25.0 °F 85% 29.91 in 1.0 mi NNW 17.3 mph - 0.00 in Snow Light Snow
10:03 AM 28.4 °F 15.8 °F 24.8 °F 86% 29.88 in 0.8 mi NNW 18.4 mph 32.2 mph 0.00 in Snow Light Snow
10:15 AM 28.4 °F 14.1 °F 24.8 °F 86% 29.88 in 0.8 mi North 24.2 mph 29.9 mph 0.00 in Snow Light Snow
10:53 AM 28.9 °F 14.5 °F 25.0 °F 85% 29.91 in 0.8 mi NNW 25.3 mph 31.1 mph 0.00 in Snow Light Snow
11:08 AM 28.4 °F 15.4 °F 24.8 °F 86% 29.89 in 1.0 mi NNW 19.6 mph 26.5 mph 0.00 in Snow Light Snow
11:25 AM 28.4 °F 15.1 °F 24.8 °F 86% 29.89 in 1.2 mi NNW 20.7 mph - 0.00 in Snow Light Snow
11:53 AM 28.9 °F 15.4 °F 24.1 °F 82% 29.94 in 1.5 mi NNW 21.9 mph 26.5 mph 0.00 in Snow Light Snow
12:53 PM 28.9 °F 16.5 °F 25.0 °F 85% 29.94 in 1.0 mi NW 18.4 mph 25.3 mph 0.00 in Snow Light Snow
12:59 PM 28.4 °F 15.8 °F 24.8 °F 86% 29.91 in 1.0 mi NNW 18.4 mph 25.3 mph 0.00 in Snow Light Snow
1:11 PM 28.4 °F 17.5 °F 24.8 °F 86% 29.91 in 1.0 mi NNW 13.8 mph 23.0 mph 0.00 in Snow Light Snow
1:19 PM 28.4 °F 17.0 °F 24.8 °F 86% 29.92 in 0.8 mi NNW 15.0 mph 25.3 mph 0.00 in Snow Light Snow
1:36 PM 28.4 °F 15.8 °F 24.8 °F 86% 29.91 in 1.0 mi NNW 18.4 mph 26.5 mph 0.00 in Snow Light Snow
1:53 PM 30.0 °F 18.3 °F 25.0 °F 82% 29.95 in 1.2 mi NW 17.3 mph - 0.00 in Snow Light Snow
2:53 PM 30.0 °F 18.3 °F 25.0 °F 82% 29.96 in 1.2 mi NW 17.3 mph 28.8 mph 0.00 in Snow Light Snow
3:11 PM 30.2 °F 17.4 °F 24.8 °F 80% 29.93 in 1.0 mi NW 20.7 mph - 0.00 in Snow Light Snow
3:26 PM 30.2 °F 17.4 °F 24.8 °F 80% 29.93 in 2.0 mi NW 20.7 mph 26.5 mph 0.00 in Snow Light Snow
3:35 PM 30.2 °F 18.9 °F 24.8 °F 80% 29.93 in 6.0 mi NW 16.1 mph 26.5 mph 0.00 in   Haze
3:53 PM 30.0 °F 17.5 °F 24.1 °F 79% 29.96 in 10.0 mi NW 19.6 mph 29.9 mph 0.00 in   Overcast
4:53 PM 30.0 °F 16.9 °F 23.0 °F 75% 29.98 in 7.0 mi NW 21.9 mph 27.6 mph N/A   Overcast
5:53 PM 28.9 °F 16.5 °F 21.9 °F 75% 30.00 in 7.0 mi WNW 18.4 mph - N/A   Overcast
6:53 PM 28.0 °F 16.5 °F 21.0 °F 75% 30.03 in 7.0 mi NW 15.0 mph 24.2 mph N/A   Overcast
7:53 PM 28.0 °F 14.9 °F 19.9 °F 72% 30.06 in 10.0 mi NW 19.6 mph 27.6 mph N/A   Overcast
8:29 PM 26.6 °F 12.7 °F 17.6 °F 69% 30.02 in 10.0 mi NW 20.7 mph 28.8 mph N/A   Overcast
8:53 PM 27.0 °F 13.9 °F 18.0 °F 69% 30.07 in 10.0 mi WNW 18.4 mph 27.6 mph N/A   Overcast
9:53 PM 27.0 °F 14.3 °F 18.0 °F 69% 30.09 in 10.0 mi WNW 17.3 mph 28.8 mph N/A   Overcast
10:53 PM 25.0 °F 12.6 °F 17.1 °F 72% 30.09 in 10.0 mi WNW 15.0 mph - N/A   Mostly Cloudy
11:53 PM 25.0 °F 13.6 °F 16.0 °F 69% 30.09 in 10.0 mi WNW 12.7 mph - N/A   Mostly Cloudy